Total_Precipitation_Accumulation
1.78 2.27 2.90 3.57 4.40 5.52 6.19 6.34 6.13 5.47 4.99 4.58 4.35 4.09 3.84 3.56 3.06 2.66 2.43 2.33 2.26 2.24 2.54 2.35 2.40 2.24 2.31 2.42 2.49 2.72 2.83 2.60 2.77 3.14 2.96 2.65 2.37 2.31 2.24 2.17 2.25 2.27 2.38
1.69 2.32 3.03 3.82 4.52 5.07 5.43 5.52 5.16 4.44 3.97 3.77 3.76 3.50 3.30 2.98 2.77 2.52 2.54 2.19 2.09 2.18 2.13 2.36 2.20 2.16 2.42 2.40 2.49 2.70 2.67 2.38 2.56 3.06 3.29 3.06 2.99 2.44 1.81 2.03 2.16 2.22 2.48
1.88 2.66 3.42 4.18 4.51 4.55 4.33 4.01 3.85 3.49 3.42 3.43 3.28 3.08 3.03 2.77 2.60 2.40 2.36 2.06 1.83 1.84 1.96 2.03 2.00 2.17 2.11 2.32 2.47 2.57 2.77 2.72 2.47 2.48 2.97 2.99 2.96 2.67 2.09 1.81 1.93 2.25 2.56
2.02 2.70 3.23 3.47 3.61 3.54 3.26 3.08 3.03 2.98 2.95 2.88 2.80 2.53 2.40 2.40 2.27 2.20 2.25 2.15 1.87 1.83 1.88 1.91 2.08 2.15 2.03 2.37 2.11 2.26 2.64 2.80 2.51 2.49 2.42 2.47 2.68 2.76 2.58 2.18 1.89 2.09 2.24
1.67 1.85 2.03 2.15 2.26 2.30 2.46 2.54 2.70 2.84 2.75 2.70 2.72 2.67 2.38 2.34 2.32 2.35 2.48 2.36 2.12 1.92 1.73 1.92 2.20 2.30 2.15 2.20 2.30 2.60 2.54 2.52 2.46 2.40 2.34 2.48 2.56 2.39 2.46 2.44 2.25 2.08 1.76
1.13 1.22 1.27 1.37 1.58 1.64 1.88 2.10 2.20 2.34 2.51 2.55 2.42 2.35 2.33 2.43 2.48 2.47 2.33 2.15 2.04 1.93 1.85 2.01 2.28 2.31 2.35 2.32 2.28 2.38 2.42 2.51 2.57 2.48 2.31 2.40 2.52 2.53 2.65 2.40 2.31 2.31 1.98
0.95 1.20 1.23 1.32 1.49 1.41 1.55 1.79 1.80 1.79 1.93 1.97 1.95 2.02 2.20 2.29 2.17 2.10 2.04 1.94 1.72 1.76 1.90 2.01 2.26 2.26 2.27 2.21 2.41 2.44 2.42 2.51 2.48 2.39 2.35 2.27 2.19 2.32 2.52 2.54 2.34 2.30 2.17
0.84 1.03 0.93 1.01 1.17 1.17 1.27 1.39 1.47 1.52 1.58 1.68 1.81 1.78 1.92 1.94 1.86 1.99 1.87 1.78 1.55 1.47 1.61 1.78 1.83 1.92 1.98 1.95 2.44 2.34 2.41 2.53 2.36 2.16 2.50 2.37 2.07 2.23 2.37 2.61 2.87 2.69 2.54
0.67 0.77 0.73 0.67 0.82 0.97 1.09 1.17 1.24 1.36 1.39 1.54 1.65 1.61 1.70 1.80 1.87 1.89 1.80 1.63 1.66 1.52 1.58 1.65 1.88 2.02 2.09 2.16 2.46 2.39 2.39 2.59 2.38 2.28 2.43 2.33 2.22 2.21 2.18 2.57 2.96 3.19 2.97
0.65 0.68 0.68 0.59 0.66 0.83 1.10 1.17 1.17 1.32 1.35 1.45 1.48 1.35 1.53 1.67 1.84 1.81 1.72 1.66 1.68 1.65 1.77 1.86 2.02 2.14 2.12 2.17 2.40 2.35 2.47 2.59 2.46 2.42 2.44 2.34 2.27 2.38 2.30 2.43 2.74 3.02 3.22
0.73 0.66 0.65 0.62 0.59 0.70 0.93 1.00 1.15 1.26 1.33 1.41 1.52 1.59 1.60 1.54 1.69 1.73 1.71 1.73 1.76 1.75 1.83 1.94 2.10 2.14 2.22 2.36 2.49 2.31 2.43 2.55 2.69 2.56 2.56 2.59 2.70 2.68 2.57 2.65 2.73 2.92 3.22
0.56 0.65 0.74 0.76 0.65 0.65 0.77 0.93 1.11 1.26 1.31 1.39 1.56 1.66 1.83 1.79 1.75 1.73 1.79 1.86 1.98 2.06 2.01 2.09 2.17 2.06 2.12 2.36 2.44 2.41 2.47 2.51 2.53 2.71 2.97 2.87 2.92 2.87 2.70 2.82 2.76 2.84 3.19
0.65 0.75 0.88 0.83 0.84 0.82 0.82 0.93 1.11 1.29 1.42 1.52 1.65 1.82 1.93 1.83 1.74 1.86 1.96 2.00 2.16 2.32 2.39 2.40 2.27 2.19 2.19 2.27 2.37 2.50 2.51 2.52 2.57 2.72 2.79 2.84 3.07 2.94 2.83 2.74 2.70 2.80 2.99
0.80 0.80 0.85 0.83 0.92 1.09 1.08 1.14 1.40 1.43 1.45 1.70 1.93 2.02 2.06 1.97 1.91 2.01 2.12 2.14 2.22 2.38 2.53 2.51 2.46 2.40 2.28 2.15 2.13 2.22 2.31 2.46 2.60 2.65 2.57 2.67 2.91 2.99 2.98 2.75 2.74 2.89 3.03
0.76 0.71 0.74 0.84 0.93 1.07 1.17 1.29 1.34 1.55 1.67 1.91 2.07 2.11 2.21 2.22 2.23 2.34 2.35 2.26 2.30 2.34 2.51 2.59 2.65 2.59 2.39 2.11 2.19 2.34 2.33 2.50 2.50 2.41 2.32 2.32 2.55 2.78 2.85 2.57 2.60 2.77 2.80
0.78 0.86 0.90 0.95 1.05 1.08 1.16 1.23 1.31 1.56 1.84 2.08 2.32 2.37 2.43 2.43 2.52 2.66 2.73 2.63 2.62 2.74 2.76 2.65 2.62 2.55 2.16 2.33 2.40 2.39 2.40 2.50 2.49 2.41 2.30 2.18 2.14 2.15 2.31 2.43 2.54 2.69 2.68
0.91 1.00 1.11 1.10 1.10 1.15 1.21 1.29 1.41 1.61 1.88 2.13 2.37 2.56 2.65 2.70 2.79 2.89 2.90 2.86 2.95 3.14 3.11 2.95 2.77 2.61 2.55 2.53 2.34 2.29 2.14 2.16 2.22 2.30 2.28 1.97 1.77 1.90 1.81 2.04 2.22 2.32 2.40
0.92 1.01 1.19 1.23 1.20 1.21 1.27 1.44 1.63 1.89 2.17 2.37 2.51 2.64 2.73 2.79 2.85 2.91 2.80 2.85 3.03 3.10 3.11 2.98 2.83 2.69 2.61 2.53 2.25 2.22 1.98 1.95 1.98 2.04 2.06 1.98 1.83 1.83 1.96 1.96 1.87 1.80 1.89
1.05 1.14 1.27 1.37 1.43 1.46 1.52 1.60 1.77 2.02 2.29 2.49 2.53 2.53 2.64 2.74 2.80 2.83 2.85 2.90 2.95 2.85 2.73 2.64 2.61 2.59 2.63 2.65 2.34 2.15 1.90 1.93 1.90 1.89 1.90 1.91 1.79 1.96 1.93 1.88 1.84 1.82 1.82
1.15 1.24 1.25 1.30 1.44 1.55 1.58 1.70 1.90 2.12 2.33 2.51 2.54 2.54 2.68 2.79 2.82 2.90 2.95 2.90 2.82 2.74 2.65 2.50 2.49 2.49 2.46 2.53 2.20 2.05 1.86 1.87 1.86 1.90 1.91 1.92 1.80 1.82 1.74 1.67 1.76 1.73 1.75
1.27 1.29 1.33 1.31 1.36 1.50 1.61 1.76 1.88 2.02 2.19 2.38 2.51 2.67 2.85 2.93 2.95 2.98 2.90 2.82 2.74 2.75 2.72 2.58 2.47 2.43 2.37 2.40 2.13 1.96 1.73 1.85 2.06 2.03 1.94 1.94 1.91 1.61 1.55 1.53 1.56 1.59 1.66
1.27 1.33 1.38 1.47 1.54 1.63 1.68 1.78 1.78 1.90 2.11 2.18 2.32 2.42 2.58 2.71 2.75 2.82 2.78 2.83 2.77 2.66 2.56 2.44 2.30 2.23 2.24 2.14 2.04 1.88 1.72 1.78 1.92 1.99 2.02 2.04 1.95 1.62 1.48 1.37 1.34 1.42 1.40
1.54 1.52 1.45 1.49 1.55 1.64 1.73 1.83 1.85 1.83 1.90 2.01 2.17 2.34 2.45 2.64 2.75 2.78 2.77 2.71 2.61 2.45 2.28 2.18 2.08 2.10 2.16 2.13 1.95 1.75 1.67 1.71 1.73 1.81 1.95 1.84 1.73 1.53 1.32 1.27 1.27 1.29 1.23
1.39 1.50 1.46 1.49 1.68 1.61 1.64 1.76 1.85 1.84 1.90 2.00 2.07 2.19 2.30 2.41 2.62 2.68 2.59 2.45 2.25 2.13 2.09 2.05 2.06 2.11 2.15 2.05 1.86 1.65 1.52 1.58 1.65 1.70 1.74 1.71 1.69 1.62 1.46 1.36 1.29 1.21 1.25
1.29 1.29 1.30 1.35 1.46 1.49 1.51 1.60 1.70 1.77 1.77 1.79 1.81 1.83 2.00 2.16 2.31 2.35 2.27 2.13 2.00 2.09 2.11 2.06 2.03 1.95 1.88 1.95 1.89 1.67 1.58 1.57 1.63 1.61 1.61 1.63 1.73 1.78 1.75 1.67 1.56 1.49 1.52
1.23 1.27 1.23 1.23 1.29 1.38 1.50 1.59 1.75 1.89 1.91 1.86 1.80 1.72 1.70 1.81 2.03 2.23 2.29 2.16 1.94 1.96 1.91 1.85 1.81 1.76 1.69 1.70 1.68 1.60 1.55 1.60 1.65 1.56 1.61 1.74 1.80 1.84 1.86 1.85 1.74 1.63 1.53